Location: Ciserano
(45.5833°N, 9.6000°E)
Time: 09:17:04
(UTC+00:00)

ALOS - Pass Details

Date: 29 November 2020
Orbit: 682 x 686 km, 97.9° (Epoch: 25 January)

Event Time Altitude Azimuth Distance (km) Brightness Sun altitude
Rises 05:25:38 0° 357° (N) 3,064 5.4 -12.6°
Reaches altitude 10° 05:28:38 10° 337° (NNW) 2,143 4.4 -12.1°
Maximum altitude 05:31:27 16° 299° (WNW) 1,762 3.7 -11.6°
Enters shadow 05:31:47 16° 295° (WNW) 1,767 3.7 -11.6°
